Location: Unspecified
(38.9820°N, 94.4650°W)
Time: 11:08:49
(UTC-05:00)

Resurs 1-4 Rocket - Visible Passes

Search period start: 24 October 2014 00:00
Search period end: 02 November 2014 23:00
Orbit: 801 x 814 km, 98.4° (Epoch: 23 October)

Date Brightness Start Highest point End Pass type
(mag) Time Alt. Az. Time Alt. Az. Time Alt. Az.
24 Oct 3.3 04:42:52 10° NNE 04:47:49 39° E 04:49:00 34° SE visible
24 Oct 3.1 06:23:10 10° NNW 06:27:26 25° WNW 06:30:05 17° WSW visible
25 Oct 4.1 04:19:04 10° NE 04:23:14 23° E 04:24:04 22° ESE visible
25 Oct 2.5 05:58:16 10° N 06:03:13 41° WNW 06:05:08 30° WSW visible
26 Oct 4.8 03:56:03 10° ENE 03:58:34 13° E 03:59:07 13° E visible
26 Oct 2.0 05:33:37 10° N 05:38:54 69° WNW 05:40:12 50° SW visible
27 Oct 2.2 05:09:12 10° NNE 05:14:30 71° ESE 05:15:15 61° SSE visible
27 Oct 3.7 06:50:54 10° NNW 06:53:43 15° WNW 06:56:20 11° W visible
28 Oct 3.2 04:45:01 10° NNE 04:50:01 41° E 04:50:18 41° ESE visible
28 Oct 3.1 06:25:27 10° NNW 06:29:36 24° WNW 06:31:23 20° W visible
29 Oct 4.1 04:21:10 10° NE 04:25:21 25° E 04:25:21 25° E visible
29 Oct 2.5 06:00:30 10° N 06:05:23 39° WNW 06:06:25 35° W visible
30 Oct 4.8 03:58:01 10° ENE 04:00:24 14° E 04:00:24 14° E visible
30 Oct 2.0 05:35:50 10° N 05:41:05 65° WNW 05:41:28 63° W visible
31 Oct 2.2 05:11:23 10° NNE 05:16:31 74° E 05:16:31 74° E visible
31 Oct 3.7 06:53:16 10° NNW 06:55:52 14° WNW 06:57:35 12° W visible
01 Nov 3.2 04:47:10 10° NNE 04:51:33 42° ENE 04:51:33 42° ENE visible
01 Nov 3.2 06:27:43 10° NNW 06:31:45 23° WNW 06:32:38 22° W visible
02 Nov 4.1 03:23:16 10° NE 03:26:35 24° ENE 03:26:35 24° ENE visible
02 Nov 2.6 05:02:44 10° N 05:07:33 37° WNW 05:07:40 37° WNW visible
